Flag for U.S.A. Weather past 2 weeks in Virginia Beach, Virginia, U.S.A.

Now
90 °F

Partly sunny.


Feels Like: 96 °F
Forecast: 76 / 92 °F
Wind: 14 mph from Southwest

Location: Virginia Beach - Oceana

Current Time: Aug 4, 2015 at 6:17:36 PM

Latest Report: Aug 4, 2015 at 5:56 PM


Visibility: 10 mi

Pressure: 29.91 "Hg

Humidity: 54%

Dew point: 71 °F

Location of Virginia BeachLocation

Historic Weather in Virginia Beach — Graph

°F

Virginia Beach temperature yesterday

Maximum temperature yesterday: 92 °F (at 1:56 PM)
Minimum temperature yesterday: 75 °F (at 5:56 AM)
Average temperature yesterday: 83 °F

Past Weeks' High & Low Weather Summary

 TemperatureHumidityPressure
High95 °F (Jul 21, 2:56 PM)91% (Jul 30, 6:56 AM)30.05 "Hg (Jul 30, 6:56 AM)
Low66 °F (Jul 26, 3:56 AM)35% (Aug 1, 12:56 PM)29.62 "Hg (Jul 21, 3:56 PM)
Average82 °F67%29.92 "Hg
* Reported Jul 20 4:56 PM — Aug 4 4:56 PM, Virginia Beach, Weather by CustomWeather, © 2015

Note: Actual official high and low records may vary slightly from our data, if they occured in-between our weather recording intervals... More about our weather records

Advertising

Virginia Beach weather history for previous 24 hours

 ConditionsComfort  
Time TempWeatherWind HumidityBarometerVisibility
4:56 PM
Tue, Aug 4
92 °FPartly sunny.17 mph49%29.93 "Hg10 mi
3:56 PM93 °FBroken clouds.15 mph50%29.93 "Hg10 mi
2:56 PM92 °FPartly sunny.17 mph52%29.94 "Hg10 mi
1:56 PM94 °FScattered clouds.17 mph48%29.95 "Hg10 mi
12:56 PM94 °FScattered clouds.20 mph49%29.96 "Hg10 mi
11:56 AM92 °FPassing clouds.21 mph54%29.97 "Hg10 mi
10:56 AM90 °FPassing clouds.18 mph57%29.98 "Hg10 mi
9:56 AM87 °FPassing clouds.16 mph65%29.98 "Hg10 mi
8:56 AM84 °FPartly sunny.16 mph74%29.98 "Hg10 mi
7:56 AM82 °FPartly sunny.16 mph79%29.99 "Hg10 mi
6:56 AM80 °FPassing clouds.12 mph81%29.98 "Hg10 mi
5:56 AM79 °FPassing clouds.12 mph82%29.98 "Hg10 mi
4:56 AM79 °FPassing clouds.15 mph82%29.95 "Hg10 mi
3:56 AM79 °FPassing clouds.14 mph79%29.93 "Hg10 mi
2:56 AM79 °FClear.15 mph79%29.93 "Hg10 mi
1:56 AM79 °FClear.15 mph79%29.93 "Hg10 mi
12:56 AM79 °FClear.13 mph77%29.94 "Hg10 mi
11:56 PM
Mon, Aug 3
80 °FClear.16 mph76%29.93 "Hg10 mi
10:56 PM81 °FClear.12 mph77%29.93 "Hg10 mi
9:56 PM82 °FPassing clouds.10 mph74%29.91 "Hg10 mi
8:56 PM82 °FPartly sunny.7 mph72%29.90 "Hg10 mi
7:56 PM84 °FBroken clouds.10 mph65%29.89 "Hg10 mi
6:56 PM87 °FBroken clouds.10 mph59%29.87 "Hg10 mi
Weather by CustomWeather, © 2015

See weather overviewHow to use our weather pages